www.pogodaiklimat.ru

Погода и климат >> Архив погоды >> Финляндия >> Танкар


ПОГОДА на Танкаре

  • Прогноз погоды на Танкаре
  • Монитор погоды на Танкаре

АРХИВ ПОГОДЫ на Танкаре

Время (UTC), дата Ветер
(напр.,м/с)
 
Видим.   Явления Облачность Т
(С)
Тd
(С)
f
(%)
Тe
(С)
Тes
(С)
Комфортность P
(гПа)
Po
(гПа)
Тmin
(С)
Tmax
(С)
R
(мм)
R24
(мм)
S
(см)
22 10.06 С 4 50 км 4/4 1500 м
[]
+8.7 +6.7 87 +6 +6 1017.5 1016.7
23 10.06 СВ 6 50 км ясно +8.3 +7.0 92 +4 +4 1018.6 1017.7
00 11.06 СВ 5-7
{8}
50 км 9/9 1500 м
[]
+7.9 +5.7 86 +4 +4 1019.9 1019.0
01 11.06 СВ 6-7
{8}
50 км 9/0 1500 м
[]
+7.5 +4.6 82 +3 +3 1020.7 1019.8
02 11.06 СВ 7-9
{9}
50 км 9/9 1500 м
[]
+7.7 +4.6 81 +3 +3 1021.6 1020.7
03 11.06 С 9-11
{11}
50 км 10/10 1500 м
[]
+7.1 +4.1 81 +2 +2 1022.6 1021.7
04 11.06 СВ 9 50 км 9/9 1500 м
[]
+6.8 +3.6 80 +1 +1 1023.1 1022.2
05 11.06 СВ 9-10
{10}
50 км 9/9 1500 м
[]
+6.7 +3.4 79 +1 +1 1024.4 1023.5
06 11.06 СВ 9-10
{11}
50 км 9/9 1500 м
[]
+6.7 +3.5 80 +1 +1 1025.7 1024.8 +6.4 +11.3
07 11.06 СВ 9 50 км 9/9 1500 м
[]
+6.5 +3.0 78 +1 +1 1026.2 1025.3
08 11.06 С 8 45 км 9/9 1500 м
[]
+7.1 +3.3 77 +2 +2 1026.5 1025.7
09 11.06 С 9-10
{11}
45 км 8/8 2000 м
[]
+6.9 +3.2 77 +2 +2 1027.7 1026.8
10 11.06 С 8-8
{11}
45 км 1/0 2000 м
[]
+7.4 +3.4 76 +3 +5 1028.2 1027.3
11 11.06 С 8 40 км ясно +7.3 +2.6 72 +2 +5 1028.5 1027.6
12 11.06 СВ 6-7
{8}
45 км ясно +7.1 +1.6 68 +3 +8 1028.8 1027.9
13 11.06 СВ 5 50 км ясно +7.4 +1.7 67 +4 +9 1028.9 1028.0
14 11.06 СВ 4-5
{6}
45 км ясно +7.7 +1.6 65 +5 +10 1029.2 1028.4
15 11.06 С 3-4
{5}
45 км ясно +7.8 +1.3 63 +5 +10 1029.7 1028.8
16 11.06 С 4 50 км ясно +7.7 +1.3 64 +5 +7 1029.7 1028.9
17 11.06 С 6 50 км ясно +7.7 +1.8 66 +4 +5 1029.6 1028.8
18 11.06 С 8-8
{9}
50 км ясно +7.5 +1.5 66 +3 +3 1029.7 1028.8 +6.3 +8.2
19 11.06 С 7-10
{10}
50 км ясно +7.3 +2.7 73 +3 +3 1029.8 1029.0
20 11.06 С 8 50 км ясно +7.2 +2.0 70 +2 +2 1030.0 1029.2
21 11.06 С 7-8
{9}
50 км ясно +6.7 +2.4 74 +2 +2 1030.3 1029.5
22 11.06 С 7-8
{8}
50 км ясно +6.9 +3.0 76 +2 +2 1030.6 1029.7
23 11.06 С 8-8
{9}
50 км ясно +7.2 +2.8 74 +2 +2 1030.6 1029.7
00 12.06 С 8-10
{10}
50 км ясно +7.1 +3.1 76 +2 +2 1031.0 1030.2
01 12.06 С 8 50 км ясно +6.9 +3.3 78 +2 +2 1031.1 1030.2
02 12.06 СВ 7 50 км ясно +6.9 +3.3 78 +2 +2 1031.3 1030.4
03 12.06 СВ 6-7
{8}
50 км ясно +7.1 +3.8 80 +3 +3 1031.5 1030.6
04 12.06 СВ 7 50 км ясно +7.0 +4.0 81 +2 +3 1031.3 1030.4
05 12.06 С 6 50 км ясно +7.8 +4.6 80 +4 +5 1031.8 1030.9
06 12.06 С 7-8
{8}
30 км ясно +8.1 +3.4 72 +4 +5 1032.0 1031.1 +6.6 +8.2
07 12.06 С 7 50 км ясно +8.1 +3.6 73 +4 +6 1031.9 1031.0
08 12.06 С 8 45 км ясно +8.6 +3.4 70 +4 +6 1031.8 1030.9
09 12.06 С 8-9
{9}
45 км ясно +9.1 +3.8 69 +5 +7 1031.7 1030.8
10 12.06 С 8 45 км ясно +9.1 +3.0 66 +5 +7 1031.3 1030.4
11 12.06 С 9 45 км ясно +8.8 +3.7 70 +4 +6 1031.0 1030.1
12 12.06 С 10-11
{11}
45 км ясно +9.3 +3.6 68 +5 +5 1030.3 1029.4
13 12.06 СВ 10 45 км ясно +9.2 +3.3 67 +5 +5 1029.7 1028.8
14 12.06 СВ 11 45 км ясно +8.9 +3.0 66 +4 +4 1029.0 1028.2
15 12.06 СВ 9-10
{11}
50 км ясно +8.8 +2.9 66 +4 +5 1028.7 1027.8
16 12.06 СВ 10-11
{12}
50 км ясно +9.2 +3.4 67 +5 +5 1028.2 1027.3
17 12.06 СВ 9-11
{12}
50 км ясно +9.3 +4.3 71 +5 +5 1027.5 1026.7
18 12.06 СВ 9-11
{11}
50 км 4/0
[]
+9.5 +4.9 73 +5 +5 1027.3 1026.4 +7.8 +9.8
19 12.06 СВ 9 50 км 9/0
[]
+9.8 +6.0 77 +6 +6 1026.9 1026.0
20 12.06 СВ 7-8
{10}
50 км 6/0
[]
+9.6 +7.2 85 +6 +6 1026.9 1026.0
21 12.06 В 5-5
{7}
50 км 9/9
[]
+10.1 +8.3 89 +7 +7 1026.6 1025.7
22 12.06 В 3 50 км 9/8
[]
+10.8 +8.1 83 +9 +9 1026.6 1025.7
23 12.06 В 4 50 км 9/9
[]
+10.9 +6.6 75 +9 +9 1026.4 1025.6
00 13.06 ЮВ 4-6
{6}
50 км 9/9
[]
+10.6 +5.8 72 +8 +8 1026.3 1025.4
01 13.06 ЮВ 4-7
{8}
50 км 9/0
[]
+10.5 +4.5 66 +8 +8 1026.1 1025.2
02 13.06 ЮВ 5-7
{8}
50 км 9/0
[]
+9.9 +3.8 66 +7 +7 1025.7 1024.9
03 13.06 ЮВ 5-7
{7}
50 км 5/0
[]
+10.3 +4.3 66 +8 +8 1025.4 1024.5
04 13.06 ЮВ 4 50 км 9/0
[]
+11.1 +4.9 66 +9 +10 1025.0 1024.1
05 13.06 ЮВ 4-6
{7}
50 км 6/0
[]
+11.6 +4.9 63 +10 +11 1024.6 1023.7
06 13.06 ЮВ 6-7
{8}
45 км 4/4
[]
+12.7 +5.0 59 +10 +12 1024.3 1023.5 +9.5 +12.9
07 13.06 ЮВ 6-9
{9}
45 км 8/8
[]
+13.1 +4.9 57 +11 +12 1024.0 1023.2
08 13.06 В 6-8
{9}
50 км 10/0
[]
+13.4 +5.8 60 +11 +11 1023.8 1023.0
09 13.06 В 6-8
{9}
50 км 9/9
[]
+13.9 +5.7 58 +12 +13 1023.5 1022.7
10 13.06 ЮВ 7 50 км 10/10
[]
+13.7 +5.5 58 +11 +11 1023.5 1022.6
11 13.06 ЮВ 6 50 км 10/10
[]
+13.9 +6.0 59 +12 +12 1022.8 1022.0
12 13.06 ЮВ 7-10
{11}
45 км 9/9
[]
+14.6 +5.7 55 +13 +13 1022.3 1021.5
13 13.06 В 6 45 км 9/9
[]
+14.6 +7.2 61 +13 +13 1021.6 1020.8
14 13.06 В 6-8
{8}
50 км 9/9
[]
+13.9 +7.2 64 +12 +12 1021.0 1020.1
15 13.06 В 5-8
{8}
50 км 9/9
[]
+15.2 +6.8 57 +14 +14 1020.4 1019.6
16 13.06 В 6 50 км ясно +14.6 +6.8 59 +13 +14 1020.1 1019.3
17 13.06 В 4-6
{8}
50 км 9/0 2000 м
[]
+13.3 +7.3 67 +12 +12 1020.3 1019.5
18 13.06 В 4-7
{7}
50 км 9/4 1000 м
[]
+12.9 +7.8 71 +11 +11 1020.4 1019.6 +12.6 +15.5
19 13.06 В 6 50 км 9/5 1000 м
[]
+12.6 +7.2 70 +10 +10 1020.2 1019.4
20 13.06 В 5 50 км 9/3 1000 м
[]
+12.3 +7.6 73 +10 +10 1020.3 1019.4
21 13.06 В 5-6
{7}
50 км 10/10 1000 м
[]
+12.0 +7.6 74 +10 +10 1020.3 1019.5
22 13.06 СВ 4 50 км 10/10 1000 м
[]
+10.9 +8.5 85 +8 +8 1020.1 1019.2
23 13.06 В 4-5
{6}
50 км 10/10 1000 м
[]
+11.2 +8.4 83 +9 +9 1019.5 1018.7
00 14.06 СВ 5-5
{5}
50 км 10/4 1000 м
[]
+10.8 +8.4 85 +8 +8 1019.1 1018.3
01 14.06 СВ 5 50 км 10/10 1000 м
[]
+10.8 +8.3 85 +8 +8 1019.2 1018.3
02 14.06 СВ 6 40 км слаб. ливневой дождь 10/10 1000 м
[]
+10.6 +8.4 86 +7 +7 1019.0 1018.1
03 14.06 В 5-6
{9}
50 км {ливн. осадки, дождь} 10/10 1000 м
[]
+10.9 +8.4 85 +8 +8 1018.4 1017.5
04 14.06 СВ 6 50 км 9/6 1000 м
[]
+10.8 +8.5 86 +8 +8 1018.2 1017.3
05 14.06 СВ 5-5
{6}
50 км 9/0
[]
+10.8 +8.6 86 +8 +8 1018.2 1017.4
06 14.06 СВ 3-4
{6}
50 км {ливн. осадки, дождь} 1/1
[]
+11.3 +8.7 84 +9 +14 1018.2 1017.3 +10.3 +13.0
07 14.06 СВ 4-5
{5}
50 км 9/9
[]
+11.4 +8.7 83 +9 +10 1018.2 1017.3
08 14.06 С 6 45 км 9/9
[]
+11.5 +8.6 82 +9 +9 1018.1 1017.2
09 14.06 С 4-5
{6}
45 км 9/9
[]
+12.7 +8.9 78 +11 +12 1017.9 1017.1
10 14.06 С 7 45 км 4/4
[]
+11.8 +8.2 79 +9 +11 1017.6 1016.7
11 14.06 С 7 50 км 9/9
[]
+12.4 +7.9 74 +10 +10 1017.6 1016.7
12 14.06 СВ 6-7
{8}
40 км ясно +12.3 +7.8 74 +10 +14 1017.3 1016.4
13 14.06 С 7-8
{8}
50 км 6/6
[]
+12.1 +7.8 75 +9 +10 1016.6 1015.8
14 14.06 С 7 50 км 9/9
[]
+11.6 +7.0 73 +9 +9 1016.6 1015.7
15 14.06 С 6-7
{8}
45 км 4/4
[]
+10.9 +7.0 77 +8 +9 1015.8 1014.9
16 14.06 СВ 5 50 км 9/4 1500 м
[]
+11.4 +7.3 76 +9 +10 1015.4 1014.5
17 14.06 СВ 3 50 км 9/5 1000 м
[]
+11.5 +7.5 76 +10 +10 1014.9 1014.0
18 14.06 С 1-2
{3}
50 км 9/9
[]
+12.7 +6.3 65 +13 +13 1014.4 1013.5 +10.9 +13.3
19 14.06 СЗ 2 50 км 9/9 1500 м
[]
+11.4 +9.3 87 +10 +10 1014.4 1013.5
20 14.06 З 5 50 км 10/10 1500 м
[]
+10.4 +7.6 83 +7 +7 1014.7 1013.8
21 14.06 З 5-6
{6}
50 км 9/9 1500 м
[]
+10.4 +7.6 83 +7 +7 1014.7 1013.8
22 14.06 З 7-9
{9}
50 км 9/9 2000 м
[]
+10.3 +6.8 79 +7 +7 1014.6 1013.8
23 14.06 З 8 50 км 9/9
[]
+10.4 +7.2 81 +7 +7 1014.8 1013.9
00 15.06 З 5-6
{9}
50 км 10/10
[]
+9.3 +7.6 89 +6 +6 1014.6 1013.7
01 15.06 З 5 50 км 10/10
[]
+9.7 +8.1 90 +6 +6 1014.2 1013.4
02 15.06 З 5 50 км 9/9
[]
+9.8 +8.6 92 +7 +7 1014.2 1013.3
03 15.06 З 5-7
{7}
50 км 10/10
[]
+10.3 +6.3 76 +7 +7 1014.6 1013.7
04 15.06 ЮЗ 2 50 км 10/10
[]
+10.9 +7.1 77 +10 +10 1014.9 1014.1
05 15.06 ЮЗ 7 50 км 10/10
[]
+10.8 +8.5 86 +7 +7 1015.0 1014.2
06 15.06 ЮЗ 6-8
{8}
45 км 1/1
[]
+11.0 +9.4 90 +8 +10 1015.3 1014.4 +9.3 +12.7
07 15.06 ЮЗ 6 45 км 9/9 50 м
[]
+10.9 +9.5 91 +8 +8 1015.8 1014.9
08 15.06 З 6 18 км 8/8 50 м
[]
+11.0 +9.7 92 +8 +9 1016.1 1015.2
09 15.06 З 6-7
{7}
30 км {дымка} 1/1 2000 м
[]
+11.5 +10.0 90 +8 +13 1016.1 1015.2
10 15.06 З 6-7
{7}
4600 м дымка 9/9 <50 м
[]
+11.0 +9.7 92 +8 +8 1016.3 1015.5
11 15.06 З 6 40 км 6/6 <50 м
[]
+11.2 +9.8 91 +8 +10 1016.5 1015.6
12 15.06 З 6-7
{7}
40 км {дымка} ясно +11.7 +9.8 88 +9 +13 1016.7 1015.8
13 15.06 З 6 45 км ясно +12.0 +10.3 89 +9 +13 1016.7 1015.9
14 15.06 З 6-7
{7}
40 км ясно +12.5 +10.5 88 +10 +13 1016.7 1015.8
15 15.06 З 6-6
{8}
29 км ясно +11.6 +10.1 91 +9 +11 1016.7 1015.8
16 15.06 ЮЗ 6 26 км ясно +12.1 +10.4 89 +9 +11 1016.6 1015.8
17 15.06 ЮЗ 6 28 км ясно +11.9 +10.1 89 +9 +10 1016.4 1015.5
18 15.06 ЮЗ 6-7
{7}
50 км ясно +11.9 +10.1 89 +9 +9 1016.1 1015.3 +10.2 +12.9
19 15.06 ЮЗ 6 50 км ясно +12.2 +10.1 87 +9 +10 1015.6 1014.8
20 15.06 ЮЗ 7 50 км ясно +11.8 +10.0 89 +9 +9 1015.5 1014.6
21 15.06 ЮЗ 7-8
{8}
50 км ясно +10.9 +9.4 90 +7 +7 1015.3 1014.4
22 15.06 ЮЗ 7 50 км ясно +10.7 +9.2 90 +7 +7 1015.3 1014.5
23 15.06 ЮЗ 6-8
{9}
50 км ясно +10.5 +9.1 91 +7 +7 1015.2 1014.3
00 16.06 ЮЗ 6-8
{9}
50 км ясно +10.8 +9.3 90 +8 +8 1014.8 1014.0
01 16.06 ЮЗ 7 50 км ясно +11.0 +9.4 90 +8 +8 1014.5 1013.7
02 16.06 ЮЗ 8 50 км ясно +11.0 +9.6 91 +7 +7 1014.4 1013.5
03 16.06 ЮЗ 8-10
{12}
45 км ясно +11.4 +9.7 89 +8 +8 1014.0 1013.2
04 16.06 ЮЗ 8 50 км ясно +11.5 +9.9 90 +8 +8 1013.9 1013.0
05 16.06 ЮЗ 9-12
{12}
45 км ясно +12.4 +10.2 86 +9 +9 1013.8 1012.9
06 16.06 ЮЗ 8-12
{12}
45 км ясно +13.0 +10.3 84 +10 +11 1013.8 1013.0 +10.4 +13.0
07 16.06 ЮЗ 8 50 км ясно +13.6 +10.4 81 +11 +12 1013.6 1012.8
08 16.06 ЮЗ 9 45 км ясно +14.9 +11.0 77 +13 +14 1013.4 1012.6
09 16.06 ЮЗ 9-11
{13}
50 км ясно +15.9 +11.1 73 +14 +15 1013.2 1012.3
10 16.06 ЮЗ 10 45 км ясно +13.1 +10.0 81 +10 +10 1013.2 1012.4
11 16.06 ЮЗ 11 50 км ясно +12.4 +9.7 84 +9 +9 1013.2 1012.3
12 16.06 ЮЗ 9-12
{13}
45 км ясно +15.0 +10.4 74 +13 +14 1012.8 1012.0
13 16.06 ЮЗ 10-12
{12}
45 км ясно +15.3 +10.6 74 +13 +14 1012.4 1011.5
14 16.06 ЮЗ 8 50 км ясно +14.1 +10.4 78 +12 +13 1012.2 1011.3
15 16.06 ЮЗ 7-10
{10}
50 км ясно +15.1 +10.9 76 +13 +15 1011.9 1011.0
16 16.06 ЮЗ 7-10
{10}
50 км ясно +15.0 +11.1 77 +13 +14 1011.6 1010.8
17 16.06 ЮЗ 7 50 км ясно +15.1 +10.8 75 +13 +14 1011.3 1010.5
18 16.06 ЮЗ 9-12
{12}
45 км 1/1
[]
+15.2 +10.8 75 +13 +13 1011.2 1010.3 +12.0 +16.4
19 16.06 ЮЗ 9 50 км ясно +15.3 +10.7 74 +13 +13 1010.7 1009.9
20 16.06 ЮЗ 8-10
{11}
50 км ясно +14.5 +10.7 78 +12 +12 1010.5 1009.7
21 16.06 ЮЗ 9-13
{13}
50 км 3/3
[]
+14.1 +10.4 78 +11 +11 1010.5 1009.6
22 16.06 ЮЗ 9 50 км 9/9
[]
+14.3 +9.9 75 +12 +12 1010.2 1009.3
23 16.06 ЮЗ 9 50 км 9/9 2000 м
[]
+14.1 +9.4 73 +12 +12 1010.0 1009.2
00 17.06 ЮЗ 8-11
{12}
50 км 5/5
[]
+14.2 +9.0 71 +12 +12 1009.9 1009.1
01 17.06 ЮЗ 10 50 км слаб. дождь 10/10
[]
+14.3 +9.6 73 +12 +12 1009.2 1008.4
02 17.06 ЮЗ 8 50 км в посл. час морось 9/9
[]
+14.0 +10.0 77 +12 +12 1009.0 1008.2
03 17.06 ЮЗ 8-10
{12}
50 км {ливн. осадки, дождь} 9/9
[]
+14.1 +10.2 77 +12 +12 1008.8 1007.9
04 17.06 ЮЗ 8 50 км 9/9
[]
+14.3 +10.1 76 +12 +12 1008.8 1007.9
05 17.06 ЮЗ 6-8
{10}
50 км 1/0
[]
+14.1 +10.1 77 +12 +13 1008.8 1008.0
06 17.06 ЮЗ 5-7
{8}
45 км {ливн. осадки, дождь} ясно +16.2 +10.7 70 +15 +18 1008.5 1007.6 +13.8 +16.2
07 17.06 ЮЗ 4 50 км ясно +17.0 +11.1 68 +17 +22 1008.4 1007.6
08 17.06 ЮЗ 4 40 км ясно +18.1 +11.8 67 +18 +25 1008.4 1007.5
09 17.06 ЮЗ 5-6
{7}
45 км ясно +19.0 +12.0 64 +20 +26 1008.0 1007.1
10 17.06 ЮЗ 6 45 км ясно +20.4 +12.0 59 +22 +27 комфорт 1007.7 1006.9
11 17.06 ЮЗ 8 40 км ясно +19.4 +12.1 63 +20 +22 1007.9 1007.0
12 17.06 ЮЗ 9-12
{12}
50 км ясно +18.8 +11.7 63 +19 +20 1007.9 1007.1
13 17.06 ЮЗ 11 50 км ясно +19.4 +12.0 62 +20 +20 1007.7 1006.9
14 17.06 ЮЗ 10-12
{14}
50 км слаб. ливневой дождь 8/1 1000 м
[]
+16.7 +13.0 79 +15 +15 1007.5 1006.7
15 17.06 ЮЗ 11-14
{14}
50 км {ливн. осадки, дождь} 4/4
[]
+17.6 +13.0 74 +16 +16 1007.1 1006.3
16 17.06 ЮЗ 10 45 км 6/6
[]
+17.7 +13.2 75 +16 +17 1007.0 1006.2
17 17.06 ЮЗ 11 45 км 8/8
[]
+17.6 +12.7 73 +16 +16 1007.1 1006.3
18 17.06 ЮЗ 9-12
{14}
50 км {ливн. осадки, дождь} 6/6
[]
+15.4 +11.8 79 +13 +13 1007.5 1006.7 +15.4 +20.6
19 17.06 ЮЗ 8 50 км 6/6 1000 м
[]
+15.0 +11.8 81 +13 +13 1007.6 1006.7
20 17.06 ЮЗ 5 50 км ясно +13.8 +11.5 86 +12 +12 1007.0 1006.2
21 17.06 З 7-7
{7}
50 км 1/1
[]
+12.5 +10.8 89 +10 +10 1007.2 1006.3
22 17.06 З 8 40 км 5/5 1500 м
[]
+10.7 +9.5 92 +7 +7 1007.3 1006.5

 

Местоположение метеостанции Танкар (Финляндия): широта 63.95 долгота 22.84 высота над уровнем моря 5 м.

В архиве по умолчанию представлена погода на Танкаре за последнюю неделю. Архивные данные за месяц целиком и за предыдущие месяцы, начиная с января 2011 года, Вы можете получить, выбрав интересующий диапазон дат из раскрывающегося списка и нажав кнопку "Ввод!".


*Определитесь, кто Вы:
робот инопланетянин человек

Внимание! Время в таблицах - всемирное. Для получения местного времени необходимо прибавить поправку, которая равна 1 ч.

Смотрите также архив погоды в соседних городах и на ближайших метеорологических станциях:

Погода в Кокколе (Финляндия) (18 км)
Погода на Острове Каллан (Финляндия) (27 км)
Погода в Круунупюу (Финляндия) (30 км)
Погода на Острове Улкокалла (Финляндия) (52 км)
Погода в Лаитале (Финляндия) (66 км)
Погода в Бюроклуббе (Швеция) (85 км)
Погода в Хокмарксбергете (Швеция) (88 км)
Погода на Маяке Nahkiainen (Финляндия) (90 км)
Погода в Каухаве (Финляндия) (91 км)
Погода в Юливиеске (Финляндия) (92 км)

Пояснения к столбцам:

Ветер - указаны скорость ветра в м/с - средняя за 10 мин, порывы в срок и между сроками (в фигурных скобках) и направление, откуда дует ветер: С - северный, СВ - северо-восточный, В - восточный, ЮВ - юго-восточный, Ю - южный, ЮЗ - юго-западный, З - западный, СЗ - северо-западный.
Видимость - горизонтальная дальность видимости в метрах или километрах. При видимости от 1 до 10 км при отсутствии осадков обычно наблюдается дымка, при ухудшении видимости до 1 км и менее - туман. В сухую погоду видимость может ухудшаться дымом, пылью или мглою.
Явления - указаны атмосферные явления, наблюдавшиеся в срок или в последний час перед сроком; фигурными скобками обозначены явления, наблюдавшиеся между сроками (за 1-3 часа до срока); квадратными скобками обозначены град или гололедные отложения с указанием их диаметра в мм.
Облачность - указаны через наклонную черту общая и нижняя облачность в баллах и высота нижней границы облаков в метрах; квадратными скобками обозначены формы облаков: Ci - перистые, Cs - перисто-слоистые, Cc - перисто-кучевые, Ac - высококучевые, As - высокослоистые, Sc - слоисто-кучевые, Ns - слоисто-дождевые, Cu - кучевые, Cb - кучево-дождевые. Подробнее классификацию облаков см. в Атласе облаков (PDF).
T - Температура воздуха - температура, измеренная на высоте 2 м над землей.
Td - Температура точки росы - температура, при понижении до которой содержащийся в воздухе водяной пар достигнет насыщения.
f - Относительная влажность воздуха - влажноcть воздуха, измеренная на высоте 2 м над землей.
Te - Эффективная температура - температура, которую ощущает одетый по сезону человек в тени. Характеристика душности погоды. При расчете учитывается влияние влажности воздуха и скорости ветра на теплоощущения человека.
Tes - Эффективная температура на солнце - температура, которую ощущает человек, с поправкой на солнечный нагрев. Характеристика знойности погоды. Зависит от высоты солнца над горизонтом, облачности и скорости ветра. Ночью, в пасмурную погоду, а также при ветре 12 м/с и более поправка равна нулю.
P - Атмосферное давление - приведенное к уровню моря атмосферное давление.
Po - Атмосферное давление - измеренное на уровне метеостанции атмосферное давление.
Tmin - Минимальная температура - минимум температуры воздуха на высоте 2 м над землей.
Tmax - Максимальная температура - максимум температуры воздуха на высоте 2 м над землей.
R - Количество осадков - Количество выпавших осадков за период времени, мм. При наведении курсора мыши на число - период времени, за который выпало указанное количество осадков.
R24 - Количество осадков - Количество выпавших осадков за 24 часа, мм.
S - Снежный покров - Высота снежного покрова, см. При наведении курсора мыши на число - состояние снежного покрова и степень покрытия местности в баллах.